EXACTVIEW-1 (ADS-1B)

Last updated on Sat Apr 13 2024 01:02:24 GMT+0100 (British Summer Time)

1 38709U 12039C 24103.21769746 .00000178 00000+0 96923-4 0 9992 2 38709 98.9483 193.8478 0010052 308.5478 51.4798 14.24409155609366
UTC large
Height (km)
Speed (km/s)
/
Latitude / Longitude
Inclination (degrees)
Orbital Period (minutes)
Azimuth
Elevation
Range (km)
Doppler Factor

Next 0 passes for location: London (51.5072 / 0.1276)

Sorry there are no passes over London.